Temp
22 23 22 21 20 20 20 20 20 21 21 21 21 21 21 21 21 21 20 21 21 20 20 20 20 20 20 21 20 20 19 19 19 20 20 20 20 20 19 20 20 20 20
23 22 22 21 20 20 20 20 20 21 21 21 20 20 21 21 21 21 21 21 21 20 20 20 20 20 20 20 20 20 20 20 20 20 20 20 20 20 19 19 20 20 19
24 22 21 21 20 20 20 20 20 21 20 21 21 20 21 21 21 21 21 20 21 20 20 19 19 19 19 19 20 20 21 21 21 21 21 20 19 20 19 19 19 19 19
25 22 21 21 21 20 20 20 21 21 21 20 20 20 20 20 20 20 20 21 20 20 19 19 19 19 19 19 19 21 20 20 21 21 20 20 19 19 19 19 19 19 19
26 23 22 21 21 21 20 20 21 21 20 21 20 20 20 20 20 20 20 20 20 20 19 19 19 19 19 19 19 20 20 20 20 20 19 19 19 19 19 19 18 19 18
26 25 24 23 21 21 21 21 21 21 20 20 20 20 20 20 20 20 20 20 20 19 19 19 19 19 19 19 20 20 19 20 20 20 19 19 19 19 19 18 18 18 18
27 25 24 24 22 21 21 21 21 21 21 20 20 20 20 20 20 20 20 20 20 20 19 19 18 19 19 20 20 20 20 20 20 19 19 19 19 18 18 18 18 18 18
27 25 24 23 22 21 21 21 21 21 21 20 20 20 20 20 21 20 20 20 20 20 20 19 18 19 19 20 20 20 20 20 21 19 19 18 18 18 18 18 18 18 18
27 25 23 23 22 21 21 21 21 20 20 20 20 20 20 20 21 20 20 20 20 20 20 19 18 19 19 20 20 20 20 20 21 20 19 18 18 18 18 17 17 17 17
27 25 24 22 22 21 21 21 20 20 20 21 20 20 20 20 20 20 20 20 19 19 19 19 18 19 19 19 20 21 20 20 21 20 19 18 18 18 17 17 17 17 17
26 25 24 24 23 22 22 22 21 20 20 20 20 20 20 20 21 20 20 19 19 19 19 19 18 19 19 20 21 21 21 19 20 19 18 17 17 17 17 17 17 17 17
25 25 24 24 23 23 22 21 21 21 20 20 20 21 21 21 21 21 20 20 20 19 19 19 18 19 19 20 21 21 21 19 19 19 18 17 17 17 17 17 17 17 17
25 25 25 24 23 23 21 21 20 20 20 20 20 20 21 21 22 22 21 20 20 19 19 18 18 19 19 19 21 21 21 19 18 18 17 17 17 17 17 17 16 16 16
26 25 25 24 24 22 21 21 21 21 21 21 20 20 21 21 21 21 21 20 19 19 19 18 18 19 20 21 21 22 22 19 18 17 17 18 17 17 17 16 16 16 16
26 25 24 24 24 23 22 22 22 22 22 22 21 21 20 20 21 21 21 20 19 19 19 19 18 19 20 21 21 22 21 18 18 18 18 18 17 17 16 16 16 16 16
28 25 25 24 24 24 23 23 24 23 23 22 22 22 21 20 20 20 20 20 19 19 19 19 18 19 20 20 21 21 19 18 18 18 17 17 16 16 16 16 16 15 15
29 26 25 24 24 24 24 24 23 22 22 22 22 22 21 21 20 20 20 20 19 19 18 18 18 19 19 20 20 19 18 19 18 17 17 16 16 16 16 15 15 15 15
29 27 26 24 24 24 23 23 22 21 21 21 21 21 21 20 20 20 20 20 19 18 18 18 18 18 18 18 18 18 18 18 18 17 17 16 16 16 16 16 15 15 14
28 28 26 25 24 23 23 22 21 20 20 20 20 20 20 19 19 19 19 19 19 18 18 17 17 17 17 17 16 17 17 17 17 17 16 16 16 16 15 15 16 15 14
28 27 25 24 24 23 22 21 20 19 19 20 20 18 18 18 18 18 18 17 17 17 17 17 17 16 16 15 15 16 16 16 16 15 15 15 15 15 15 15 15 15 15
27 26 24 24 23 23 22 20 18 19 18 18 18 18 17 18 19 18 17 17 17 16 16 16 16 15 14 14 14 13 13 15 14 15 15 14 15 15 15 16 15 15 15
26 25 24 23 23 22 22 21 20 20 19 19 18 18 17 17 18 17 17 16 16 16 15 15 16 14 13 14 13 13 13 13 13 14 14 14 15 15 16 16 16 16 15
25 24 23 23 22 22 21 21 21 20 19 19 18 17 17 17 17 17 16 16 16 15 15 14 14 15 13 13 13 13 12 13 12 13 14 15 14 14 15 16 16 15 15
25 24 23 22 22 21 20 20 19 19 18 18 18 18 17 17 17 17 16 16 15 15 15 13 13 14 14 13 12 13 13 13 12 12 13 14 14 13 14 15 15 15 15
24 23 22 21 21 20 19 19 19 19 19 19 19 18 17 17 17 16 16 15 15 15 15 14 13 13 14 13 13 12 12 13 13 12 12 12 13 13 13 14 15 15 14
21 21 20 20 19 19 18 18 18 18 19 19 18 18 17 17 16 15 15 15 15 15 14 14 13 13 13 13 13 13 13 12 12 13 12 12 12 13 13 15 15 15 14
Height
766 768 772 776 780 782 783 786 787 789 790 790 791 793 794 795 797 798 798 799 800 800 800 802 802 801 801 802 801 800 799 798 797 797 796 793 792 791 788 785 783 781 779
764 767 772 775 779 782 784 787 788 789 792 792 793 793 794 796 797 799 800 800 801 802 802 803 803 803 803 804 803 802 801 801 800 799 799 797 795 794 792 789 786 785 783
764 768 772 776 779 782 785 787 789 790 792 793 794 795 795 796 797 800 801 802 802 804 804 805 805 806 805 805 806 804 804 803 803 801 801 801 799 797 795 793 790 788 787
765 769 773 776 779 783 786 787 789 791 792 793 795 796 797 797 798 800 801 803 803 805 806 807 808 807 808 807 807 807 807 806 804 803 803 804 803 801 798 796 794 793 791
765 769 773 776 780 783 786 787 791 792 793 794 796 796 798 798 800 801 802 804 803 804 806 807 809 809 809 810 809 809 809 808 807 806 807 807 806 805 802 800 798 797 795
766 768 773 776 781 783 785 788 790 793 794 795 796 797 798 799 801 802 803 805 806 806 807 808 810 810 810 810 811 812 812 811 809 811 810 810 808 808 806 804 803 801 800
765 767 771 776 780 783 786 787 789 793 795 795 797 798 798 800 801 802 804 805 806 808 808 810 811 811 812 812 813 814 814 813 812 813 813 813 812 811 809 808 806 805 804
763 766 771 775 780 783 785 788 789 791 794 796 797 798 798 800 801 803 805 806 808 808 809 811 812 812 813 814 814 815 816 816 815 816 816 816 816 814 813 812 810 810 808
764 766 770 776 779 784 785 789 789 792 794 795 797 798 799 800 801 803 805 806 808 809 811 812 813 814 814 815 816 816 817 817 817 818 818 818 818 818 818 816 814 813 813
763 766 770 775 778 783 784 787 789 791 792 794 796 798 800 801 802 803 805 807 808 810 812 812 814 816 815 816 817 817 819 819 819 820 821 822 821 821 821 820 819 817 816
763 767 769 774 778 780 783 785 788 789 791 793 795 797 799 800 801 803 805 807 808 811 812 813 815 815 816 817 818 818 819 820 819 821 824 825 824 824 824 824 823 821 819
763 767 768 773 776 779 783 784 787 788 790 792 794 795 798 799 801 802 804 805 808 810 813 814 815 816 817 818 819 820 819 821 820 821 824 827 827 828 827 826 826 826 824
759 765 768 770 773 777 780 784 786 787 789 791 793 796 798 800 800 802 803 805 807 809 812 813 815 816 817 819 820 820 821 821 821 823 825 827 830 830 830 829 828 829 829
755 759 765 767 770 774 779 781 783 784 787 789 791 795 797 799 799 800 802 804 806 809 810 812 814 816 818 820 820 821 822 821 824 825 827 829 831 833 833 833 832 832 833
749 754 760 764 768 771 776 779 780 782 785 786 790 792 794 798 798 798 802 805 807 809 811 812 813 816 818 819 820 821 820 822 824 827 829 832 832 834 836 837 836 835 836
746 750 755 760 766 769 772 776 778 781 783 786 788 790 792 795 796 799 801 803 806 808 810 811 812 816 817 818 819 820 820 822 824 827 830 833 834 835 838 840 840 839 839
744 748 751 756 762 767 770 772 775 779 782 784 786 789 792 794 796 798 800 803 805 807 808 810 811 815 817 817 819 821 822 822 826 828 832 834 836 838 837 842 843 842 842
740 744 749 753 759 764 768 770 774 777 780 783 786 788 790 793 794 796 799 801 803 805 806 808 810 813 815 816 819 821 822 824 827 829 832 835 836 838 840 842 845 845 845
738 742 745 750 756 762 766 769 772 776 779 782 786 786 788 791 793 795 796 799 801 803 805 807 809 812 813 815 819 820 823 825 829 830 833 837 839 838 841 844 845 847 848
734 738 743 748 754 760 764 766 771 775 778 780 783 784 786 790 792 793 795 798 799 801 803 806 809 811 813 815 820 821 824 827 828 831 834 836 840 839 840 844 847 849 851
730 736 741 746 752 757 761 764 769 771 775 777 779 782 785 787 790 791 792 796 798 799 802 805 807 810 815 817 821 823 826 827 831 833 834 836 840 841 842 843 848 849 851
727 733 739 744 751 754 758 762 764 767 771 774 777 779 782 785 787 789 791 794 795 798 801 803 804 808 812 816 820 825 829 830 832 835 834 837 840 842 843 843 847 849 850
722 732 739 744 749 753 757 759 761 765 769 773 775 777 778 782 784 788 790 792 795 797 799 801 804 805 809 815 818 820 826 827 831 833 835 836 838 841 843 843 845 848 848
716 728 738 744 748 752 755 757 760 764 768 770 772 774 775 779 782 785 788 790 793 795 798 800 801 803 806 810 814 816 820 821 826 832 833 835 838 839 842 844 843 846 848
718 724 735 744 748 751 753 757 760 762 765 768 771 774 776 779 781 782 785 789 790 793 795 797 800 802 804 808 810 816 819 819 823 825 829 834 836 838 841 842 843 845 849
721 727 734 743 749 751 754 756 758 761 763 767 771 774 776 777 780 782 784 786 788 791 793 794 796 800 803 807 809 810 814 817 817 822 826 832 833 836 839 841 841 843 848
Wind_Speed
17 23 19 17 14 12 12 11 11 10 10 9 9 9 9 9 8 8 8 9 9 11 13 13 13 14 14 14 15 13 16 17 18 23 22 24 24 24 24 25 27 28 28
22 23 21 18 16 13 12 11 10 8 7 8 9 9 8 8 7 7 8 8 9 9 11 12 12 13 13 13 13 12 16 18 16 18 20 22 24 24 24 26 28 29 29
23 21 21 17 16 14 12 10 9 10 8 7 6 8 7 7 7 7 7 7 8 9 11 11 12 12 13 13 12 14 16 16 15 17 20 20 22 23 24 27 28 29 30
23 20 19 19 15 14 12 10 8 9 9 7 6 5 6 5 7 8 7 7 8 9 10 11 11 12 12 12 11 14 15 15 15 17 19 19 20 23 24 25 27 28 29
21 18 20 19 15 14 12 9 7 6 7 7 5 5 5 5 6 6 7 8 10 11 10 10 10 11 12 11 12 13 15 16 18 19 19 20 20 21 23 25 26 28 30
18 19 19 18 16 14 16 9 7 5 6 6 6 4 6 5 6 7 7 8 10 11 10 10 9 9 10 11 13 16 16 16 20 18 19 18 20 20 22 24 26 29 29
17 19 18 15 18 16 13 11 8 6 6 6 6 6 6 5 6 6 7 9 9 10 9 9 9 8 8 9 11 14 15 15 19 19 17 19 18 21 22 23 24 25 26
21 18 16 17 18 16 13 14 10 7 6 7 5 6 7 7 6 7 7 8 9 9 9 8 8 8 7 7 9 9 14 11 13 16 17 17 17 22 23 23 24 25 25
14 21 15 18 17 15 14 13 12 9 7 8 7 6 5 6 7 8 8 8 8 9 8 8 8 6 6 6 6 9 13 9 11 14 14 16 17 21 22 23 23 24 24
15 15 13 13 14 14 13 13 13 11 8 8 9 7 7 7 7 7 8 8 8 8 8 9 9 6 5 6 7 10 12 8 9 8 13 15 17 18 19 19 20 22 23
13 14 18 14 14 13 12 13 13 11 8 9 9 9 8 7 6 7 7 8 8 8 9 10 9 7 6 7 10 10 6 13 13 12 12 13 17 17 17 18 20 22 24
13 12 15 15 16 14 13 13 12 14 11 11 10 10 10 8 10 8 11 9 8 8 8 9 9 6 6 7 11 6 6 15 15 16 14 14 16 15 16 18 21 22 22
21 16 14 17 19 16 15 12 13 13 12 12 12 12 11 10 13 11 11 10 9 10 10 11 11 7 10 7 2 1 4 16 18 16 17 14 14 14 16 19 20 21 21
24 23 18 13 15 13 13 11 11 11 12 13 12 11 12 11 8 9 9 8 8 10 11 12 12 9 7 9 3 4 7 18 18 18 15 12 14 16 17 18 19 20 20
28 28 24 19 15 16 15 11 13 11 11 8 11 8 10 10 9 9 7 5 8 10 11 11 13 12 9 8 3 3 13 21 19 17 14 12 16 18 15 16 18 19 20
17 29 27 22 18 16 17 14 10 8 6 8 9 8 8 8 7 6 4 7 6 7 10 13 14 12 12 7 5 2 20 19 18 16 14 14 17 18 18 16 17 18 19
20 26 24 22 20 16 14 14 15 8 10 4 6 5 6 7 6 6 7 6 7 8 9 11 13 12 11 12 8 8 19 13 19 16 14 16 16 17 20 15 16 17 18
16 26 25 24 23 19 14 10 9 9 8 7 12 11 13 7 9 9 5 7 9 9 9 11 13 13 12 9 7 7 12 16 18 17 17 18 19 18 16 18 16 17 17
20 21 27 23 20 20 16 15 16 11 10 8 6 13 10 12 11 11 11 4 11 8 8 8 11 17 15 14 10 8 11 20 15 18 18 17 17 20 19 17 17 15 16
23 19 26 23 20 21 19 17 13 11 12 8 14 9 9 8 9 9 8 6 7 8 9 12 15 14 17 18 15 16 16 15 16 13 14 17 16 20 20 17 15 14 14
19 17 23 23 22 22 22 18 14 13 11 11 13 14 8 11 10 11 10 9 9 8 10 14 18 19 14 18 17 16 10 11 10 12 15 15 14 17 20 18 16 14 12
21 20 21 22 21 22 21 18 14 10 11 10 10 10 8 11 13 10 10 9 10 11 12 17 20 19 13 22 9 8 2 5 10 12 15 16 15 16 17 16 16 13 13
26 22 21 23 22 21 18 15 12 10 8 11 8 10 12 13 14 13 11 10 11 14 13 17 22 23 15 20 17 6 3 2 6 7 10 13 13 13 14 15 16 15 15
27 25 20 20 19 18 17 13 12 11 9 11 9 9 11 14 16 12 11 10 11 11 13 16 22 23 19 19 21 9 6 10 3 2 7 14 13 14 16 16 18 15 16
20 28 23 19 17 15 17 14 13 12 9 7 10 10 9 10 10 12 10 11 11 11 15 18 21 21 20 20 20 14 8 10 8 3 4 8 12 13 15 14 17 12 14
24 20 18 16 13 13 13 13 10 10 7 6 8 7 6 10 9 8 8 10 10 11 14 19 23 21 22 20 23 23 15 7 10 7 3 4 9 11 10 9 12 15 10
Wind_Direction
153 159 160 155 153 144 138 137 130 127 128 130 122 110 108 100 94 95 90 89 93 86 85 76 70 68 66 62 60 61 57 53 62 57 57 60 57 53 52 55 51 48 45
153 156 159 155 153 149 143 144 144 148 142 126 125 123 116 109 112 109 108 98 102 102 96 84 77 73 66 65 62 70 64 63 58 65 58 60 58 57 53 53 53 51 48
147 154 156 159 154 152 150 149 151 142 142 149 143 129 121 122 122 120 120 114 109 107 98 83 79 71 69 68 62 76 64 59 62 71 71 56 56 60 57 54 53 52 49
147 159 160 166 159 159 157 151 155 164 157 144 144 134 127 127 133 136 134 127 127 115 98 91 83 79 72 69 73 72 59 57 62 63 72 70 59 59 59 58 55 54 52
148 152 168 163 165 165 166 156 162 161 167 158 158 142 133 137 134 132 136 140 140 130 115 104 93 83 78 69 81 71 52 65 63 66 74 76 70 63 63 61 59 57 56
152 155 176 174 173 171 175 169 164 166 164 154 151 153 145 154 149 140 146 147 143 133 122 111 99 94 88 84 84 70 61 69 67 66 70 71 72 70 66 63 61 60 56
156 159 167 178 177 178 185 179 172 175 178 180 179 160 161 158 154 154 163 155 152 139 127 119 107 98 94 93 94 84 71 69 71 66 65 69 69 71 67 66 63 61 59
152 155 168 176 182 186 189 187 183 177 181 186 194 176 170 161 173 175 171 161 158 148 138 134 118 104 104 92 96 93 79 86 69 71 68 69 69 73 72 71 68 64 62
148 151 157 177 181 192 192 199 193 190 187 197 196 188 180 170 180 177 174 171 164 155 149 144 128 100 119 99 91 110 85 86 76 82 73 74 72 75 72 72 72 69 64
142 143 160 170 186 196 201 202 205 197 199 202 201 192 195 188 184 183 179 178 178 167 169 157 144 154 131 102 95 123 104 92 96 69 80 82 83 78 75 73 75 74 68
153 159 159 164 189 200 208 217 209 207 206 205 203 195 206 195 193 195 186 192 188 181 180 165 162 170 139 112 113 120 92 121 112 101 88 89 87 85 83 82 79 77 74
162 182 185 195 195 197 200 211 211 210 210 206 205 205 205 202 205 212 197 202 198 192 192 179 179 179 139 115 125 120 100 146 118 108 105 93 89 89 95 90 86 80 79
176 187 200 193 177 198 203 206 208 200 200 202 209 215 219 221 206 200 195 205 209 198 197 185 187 182 168 173 96 46 150 127 116 112 108 101 102 104 101 97 92 89 85
176 182 195 190 193 194 188 199 202 209 209 213 215 224 223 229 200 202 203 194 202 199 196 200 193 189 198 197 188 162 126 130 121 114 112 118 118 113 106 98 98 94 89
181 182 185 193 185 183 182 199 206 197 201 200 199 216 228 237 242 234 236 207 198 208 200 212 205 208 217 219 181 170 134 125 123 122 121 138 132 116 109 108 102 98 94
177 174 178 177 194 192 194 199 194 179 178 184 203 209 209 223 227 244 249 227 225 238 220 219 220 211 199 184 209 162 130 125 124 127 135 141 132 124 115 108 106 102 98
203 178 174 181 187 196 198 194 190 176 204 160 212 170 167 207 184 202 222 236 241 250 234 227 224 214 191 180 181 107 126 130 132 136 149 142 137 130 124 115 110 106 102
204 170 174 172 176 186 187 166 175 196 213 214 217 222 218 195 201 202 215 220 230 216 221 220 209 198 169 152 153 145 114 132 146 155 151 148 140 135 133 127 116 112 106
212 195 169 165 174 182 181 180 180 166 207 216 204 224 242 213 224 218 208 233 234 223 230 209 215 178 154 169 165 137 128 141 158 152 149 151 152 142 137 133 129 121 113
197 180 169 172 178 180 178 185 185 185 192 192 209 192 185 203 204 219 222 185 206 227 216 212 206 180 167 159 137 131 133 117 141 136 147 155 162 151 142 137 136 136 125
183 160 164 169 180 182 178 175 181 197 196 214 233 240 226 206 207 206 216 185 212 229 217 215 188 182 160 158 126 113 117 146 149 151 146 151 166 156 151 144 148 143 141
173 178 175 176 183 186 183 185 194 203 206 213 218 237 238 226 214 197 197 199 202 214 208 207 195 157 160 172 151 119 139 106 145 158 155 160 164 171 164 165 166 166 153
168 177 178 180 182 178 180 189 176 152 141 182 201 224 238 220 222 206 218 197 209 216 204 203 197 191 163 182 170 140 127 188 138 178 193 191 182 194 194 178 180 178 173
161 173 180 182 178 178 186 181 185 191 187 213 234 247 226 218 211 219 193 201 212 220 215 204 193 199 193 184 175 162 156 156 158 152 217 213 219 217 207 219 184 176 183
152 157 166 172 177 173 176 178 184 187 197 217 208 200 213 199 193 208 217 207 214 224 224 217 206 209 202 192 181 171 162 152 144 144 162 212 217 217 212 168 170 147 172
127 137 144 155 164 165 168 175 177 183 187 171 163 175 180 171 168 188 213 203 206 212 216 213 203 199 206 200 183 193 179 163 177 169 120 171 174 188 201 185 165 171 177